TimeEST,TemperatureF,Dew PointF,Humidity,Sea Level PressureIn,VisibilityMPH,Wind Direction,Wind SpeedMPH,Gust SpeedMPH,PrecipitationIn,Events,Conditions,WindDirDegrees,DateUTC
12:53 AM,34.0,30.9,89,30.45,10.0,Calm,Calm,-,N/A,,Clear,0,2012-11-13 05:53:00
1:53 AM,33.1,30.0,89,30.45,10.0,Calm,Calm,-,N/A,,Clear,0,2012-11-13 06:53:00
2:53 AM,33.1,28.9,85,30.45,10.0,Calm,Calm,-,N/A,,Clear,0,2012-11-13 07:53:00
3:53 AM,30.9,28.0,89,30.45,10.0,Calm,Calm,-,N/A,,Clear,0,2012-11-13 08:53:00
4:53 AM,33.1,26.1,75,30.45,10.0,Calm,Calm,-,N/A,,Clear,0,2012-11-13 09:53:00
5:53 AM,32.0,25.0,75,30.47,10.0,East,3.5,-,N/A,,Clear,80,2012-11-13 10:53:00
6:53 AM,32.0,25.0,75,30.49,10.0,ENE,3.5,-,N/A,,Clear,70,2012-11-13 11:53:00
7:53 AM,33.1,27.0,78,30.50,10.0,NE,3.5,-,N/A,,Clear,50,2012-11-13 12:53:00
8:53 AM,37.9,28.0,68,30.51,10.0,Variable,4.6,-,N/A,,Clear,0,2012-11-13 13:53:00
9:53 AM,42.1,26.1,53,30.50,10.0,Variable,4.6,-,N/A,,Clear,0,2012-11-13 14:53:00
10:53 AM,45.0,25.0,46,30.50,10.0,Variable,4.6,-,N/A,,Clear,0,2012-11-13 15:53:00
11:53 AM,46.0,25.0,44,30.48,10.0,ENE,6.9,-,N/A,,Clear,60,2012-11-13 16:53:00
12:53 PM,48.9,25.0,39,30.45,10.0,Variable,6.9,-,N/A,,Clear,0,2012-11-13 17:53:00
1:53 PM,50.0,21.9,33,30.43,10.0,Variable,6.9,16.1,N/A,,Clear,0,2012-11-13 18:53:00
2:53 PM,51.1,24.1,35,30.42,10.0,ENE,8.1,-,N/A,,Clear,60,2012-11-13 19:53:00
3:53 PM,51.1,23.0,33,30.42,10.0,NE,5.8,-,N/A,,Clear,50,2012-11-13 20:53:00
4:53 PM,48.0,21.9,36,30.42,10.0,Variable,6.9,-,N/A,,Clear,0,2012-11-13 21:53:00
5:53 PM,45.0,23.0,42,30.43,10.0,Calm,Calm,-,N/A,,Clear,0,2012-11-13 22:53:00
6:53 PM,43.0,25.0,49,30.44,10.0,ENE,3.5,-,N/A,,Clear,60,2012-11-13 23:53:00
7:53 PM,41.0,25.0,53,30.46,10.0,Calm,Calm,-,N/A,,Clear,0,2012-11-14 00:53:00
8:53 PM,39.0,26.1,60,30.46,10.0,ENE,3.5,-,N/A,,Clear,60,2012-11-14 01:53:00
9:53 PM,37.9,26.1,62,30.46,10.0,NE,3.5,-,N/A,,Clear,50,2012-11-14 02:53:00
10:53 PM,37.0,26.1,65,30.45,10.0,NE,4.6,-,N/A,,Clear,50,2012-11-14 03:53:00
11:53 PM,37.0,26.1,65,30.44,10.0,NE,3.5,-,N/A,,Clear,50,2012-11-14 04:53:00